SCP
0 0 0 0 0 0 0 0 0 0 0 0 0 0 0 0 0 0 0 0 0 0 0 0 0 0 0 0 0 0 0 0 0 0 0 0 0 0 0 0 0 0 0 0 0 0 0 0 0
0 0 0 0 0 0 0 0 0 0 0 0 0 0 0 0 0 0 0 0 0 0 0 0 0 0 0 0 0 0 0 0 0 0 0 0 0 0 0 0 0 0 0 0 0 0 0 0 0
0 0 0 0 0 0 0 0 0 0 0 0 0 0 0 0 0 0 0 0 0 0 0 0 0 0 0 0 0 0 0 0 0 0 0 0 0 0 0 0 0 0 0 0 0 0 0 0 0
0 0 0 0 0 0 0 0 0 0 0 0 0 -0 0 0 0 0 0 0 0 0 0 0 0 0 0 0 0 0 0 0 0 0 0 0 0 0 0 0 0 0 0 0 0 0 0 0 0
0 0 0 0 0 0 0 0 0 0 0 0 0 0 0 0 0 0 0 0 0 0 0 0 0 0 0 0 0 0 0 0 0 0 0 0 0 0 0 0 0 0 0 0 0 0 0 0 0
0 0 0 0 0 0 0 0 0 0 0 0 0 0 0 0 0 0 0 0 0 0 0 0 0 0 0 -0 -0 0 0 0 0 0 0 0 0 0 0 0 0 0 0 0 0 0 0 0 0
0 0 0 0 0 0 0 0 0 0 0 0 0 0 0 0 0 0 0 0 0 0 0 0 0 0 -0 -0 0 0 0 0 0 0 0 0 0 0 0 0 0 0 0 0 0 0 0 0 0
0 0 0 0 0 0 0 0 0 0 0 0 0 0 0 0 0 0 0 0 0 0 0 0 0 0 0 0 0 0 0 0 0 0 0 0 0 0 0 0 0 0 0 0 0 0 0 0 0
0 0 0 0 0 0 0 0 0 0 0 0 0 0 0 0 0 0 0 0 0 0 0 0 0 0 0 0 0 0 0 0 0 0 0 0 0 0 0 0 0 0 0 0 0 0 0 0 0
0 0 0 0 0 0 0 0 0 0 0 0 0 0 0 0 0 0 0 0 0 0 0 0 0 0 0 0 0 0 0 0 0 0 0 0 0 0 0 0 0 0 0 0 0 0 0 0 0
0 0 0 0 0 0 0 0 0 0 0 0 0 0 0 0 0 0 0 0 0 0 0 0 0 0 0 0 0 0 0 0 0 0 0 0 0 0 0 0 0 0 0 0 0 0 0 0 0
0 0 0 0 0 0 0 0 0 0 0 0 0 0 0 0 0 0 0 0 0 0 0 0 0 0 0 0 0 0 0 0 0 0 0 0 0 0 0 0 0 0 0 0 0 0 0 0 0
0 0 0 0 0 0 0 0 0 0 0 0 0 0 0 0 0 0 0 0 0 0 0 0 0 0 0 0 0 0 0 0 0 0 0 0 0 0 0 0 0 0 0 0 0 0 0 0 0
0 0 0 0 0 0 0 0 0 0 0 0 0 0 0 0 0 0 0 0 0 0 0 0 0 0 0 0 0 0 0 0 0 0 0 0 0 0 0 0 0 0 0 0 0 0 0 0 0
0 0 0 0 0 0 0 0 0 0 0 0 0 0 0 0 0 0 0 0 0 0 0 0 0 0 0 0 0 0 0 0 0 0 0 0 0 0 0 0 0 0 0 0 0 0 0 0 0
0 0 0 0 0 0 0 0 0 0 0 0 0 0 0 0 0 0 0 0 0 0 0 0 0 0 0 0 0 0 0 0 0 0 0 0 0 0 0 0 0 0 0 0 0 0 0 0 0
0 0 0 0 0 0 0 0 0 0 0 0 0 0 0 0 0 0 0 0 0 0 0 0 0 0 0 0 0 0 0 0 0 0 0 0 0 0 0 0 0 0 0 0 0 0 0 0 0
0 0 0 0 0 0 0 0 0 0 0 0 0 0 0 -0 0 0 0 0 0 0 0 0 0 0 0 0 0 0 0 0 0 0 0 0 0 0 0 0 0 0 0 0 0 0 0 0 0
0 0 0 0 0 0 0 0 0 0 0 0 0 0 0 0 0 -0 0 0 0 0 0 0 0 0 0 0 0 0 0 0 0 0 0 0 0 0 0 0 0 0 0 0 0 0 0 0 0
0 0 0 0 0 0 0 0 0 0 0 0 0 0 0 0 0 0 0 0 0 0 0 0 0 0 0 0 0 0 0 0 0 0 0 0 0 0 0 0 0 0 0 0 0 0 0 0 0
0 0 0 0 0 0 0 0 0 0 0 0 0 0 0 0 0 0 0 0 0 0 0 0 0 0 0 0 0 0 0 0 0 0 0 0 0 0 0 0 0 0 0 0 0 0 0 0 0
0 0 0 0 0 0 0 0 0 0 0 0 0 0 0 0 0 0 0 0 0 0 0 0 0 0 0 0 0 0 0 0 0 0 0 0 0 0 0 0 0 0 0 0 0 0 0 0 0
0 0 0 0 0 0 0 0 0 0 0 0 0 0 0 0 0 0 0 0 0 0 0 0 0 0 0 0 0 0 0 0 0 0 0 0 0 0 0 0 0 0 0 0 0 0 0 0 0
0 0 0 0 0 0 0 0 0 0 0 0 0 0 0 0 0 0 0 0 0 0 0 0 0 0 0 0 0 0 0 0 0 0 0 0 0 0 0 0 0 0 0 0 0 0 0 0 0
0 0 0 0 0 0 0 0 0 0 0 0 0 0 0 0 0 0 0 0 0 0 0 0 0 0 0 0 0 0 0 0 0 0 0 0 0 0 0 0 0 0 0 0 0 0 0 0 0
0 0 0 0 0 0 0 0 0 0 0 0 0 0 0 0 0 0 0 0 0 0 0 0 0 0 0 0 0 0 0 0 0 0 0 0 0 0 0 0 0 0 0 0 0 0 0 0 0
0 0 0 0 0 0 0 0 0 0 0 0 0 0 0 0 0 0 0 0 0 0 0 0 0 0 0 0 0 0 0 0 0 0 0 0 0 0 0 0 0 0 0 0 0 0 0 0 0
0 0 0 0 0 0 0 0 0 0 0 0 0 0 0 0 0 0 0 0 0 0 0 0 0 0 0 0 0 0 0 0 0 0 0 0 0 0 0 0 0 0 0 0 0 0 0 0 0
0 0 0 0 0 0 0 0 0 0 0 0 0 0 0 0 0 0 0 0 0 0 0 0 0 0 0 0 0 0 0 0 0 0 0 0 0 0 0 0 0 0 0 0 0 0 0 0 0
0 0 0 0 0 0 0 0 0 0 0 0 0 0 0 0 0 0 0 0 0 0 0 0 0 0 0 0 0 0 0 0 0 0 0 0 0 0 0 0 0 0 0 0 0 0 0 0 0
Wind_Speed
2 2 2 2 2 1 2 4 4 6 6 4 4 3 3 1 1 4 6 12 13 13 12 11 10 11 10 10 10 10 11 12 13 13 14 14 14 14 14 14 15 15 16 16 16 16 16 16 16
2 2 1 1 3 3 3 5 7 6 5 6 4 3 3 2 3 6 9 12 14 13 11 11 11 11 11 10 10 10 11 12 13 13 14 14 13 13 14 14 14 15 15 15 15 15 15 15 15
0 2 1 1 3 2 3 6 8 6 6 4 4 1 1 3 5 8 9 15 14 12 11 11 10 11 11 10 10 10 11 12 13 13 13 13 13 13 13 13 14 14 15 15 15 15 14 14 15
2 1 1 3 4 1 0 4 8 10 6 2 3 4 3 3 4 7 12 15 14 12 11 12 10 11 11 10 10 11 11 12 12 13 13 13 13 12 12 13 13 14 14 14 14 14 14 14 14
1 2 3 4 3 1 1 3 10 10 8 4 4 4 5 4 4 9 14 14 13 12 11 12 10 10 11 10 10 10 11 12 12 13 13 12 12 12 12 12 12 13 13 13 13 13 13 13 13
3 3 5 5 3 1 2 6 9 8 6 4 5 5 5 4 7 12 14 13 13 12 11 11 10 9 9 9 9 9 11 12 12 12 12 12 11 11 11 11 11 12 12 12 12 12 12 12 12
4 4 5 4 3 3 5 7 8 8 7 6 5 5 6 7 8 12 13 12 11 11 10 10 10 10 8 8 8 8 9 10 11 11 11 10 9 10 9 9 10 11 11 11 11 11 11 11 11
3 4 5 5 5 4 7 7 3 5 4 4 4 4 5 10 11 12 12 11 10 10 10 10 9 9 9 9 8 8 9 9 10 10 10 9 9 9 8 7 9 10 10 10 10 10 10 10 10
4 5 6 7 7 5 9 7 5 1 4 4 2 1 4 12 14 13 11 10 10 9 9 9 9 9 8 8 8 8 8 9 9 9 9 7 7 8 6 8 8 9 9 9 9 9 9 8 8
5 7 6 4 4 6 10 7 8 6 5 5 5 4 5 13 15 16 15 15 14 12 11 9 10 9 9 7 7 6 6 7 6 7 8 5 5 5 5 8 8 8 8 8 8 8 7 3 4
6 6 4 4 3 5 10 7 7 7 6 8 8 11 11 13 15 17 17 16 15 13 11 10 10 9 9 6 6 4 4 5 6 7 7 5 5 5 4 4 5 6 6 5 6 5 2 2 2
5 3 3 4 4 6 9 8 7 8 2 1 3 9 14 17 18 18 18 16 14 13 13 12 11 9 9 7 6 6 5 4 5 6 7 6 4 4 4 3 4 4 3 3 3 2 3 2 2
5 5 3 4 5 5 6 6 4 7 6 1 2 9 14 17 18 16 15 15 14 15 14 13 12 11 10 8 6 6 6 6 6 6 7 7 5 5 5 4 4 4 3 4 3 3 4 3 3
6 7 6 4 5 4 5 3 3 4 3 5 5 9 13 15 16 15 15 16 16 15 15 13 13 12 11 9 8 7 6 6 6 6 7 8 6 5 5 5 5 4 4 4 4 4 4 3 3
6 8 5 3 3 3 3 5 8 2 2 5 7 8 10 12 13 16 17 17 16 15 14 14 13 13 12 11 10 7 7 7 6 6 8 9 7 7 6 5 5 5 5 5 4 4 4 4 4
6 7 7 3 2 1 5 10 5 1 4 8 8 8 9 11 14 15 15 15 15 14 15 14 11 13 13 12 10 8 7 8 7 6 7 9 9 8 6 6 6 5 5 4 4 4 4 5 5
7 9 10 5 2 3 7 9 2 1 3 7 7 8 8 10 13 14 14 15 14 15 15 15 15 15 14 13 10 9 8 8 7 7 7 9 10 10 8 6 6 6 5 5 5 5 5 5 6
11 9 8 9 5 5 7 11 6 4 5 7 7 7 8 10 12 11 12 14 14 14 15 15 15 15 14 11 9 7 8 8 7 7 8 10 9 11 9 7 8 7 6 6 7 7 6 5 5
11 10 8 5 2 6 9 12 12 8 8 11 10 9 9 9 7 6 8 10 12 14 16 16 16 15 13 10 10 9 9 8 8 8 10 11 11 11 10 8 8 9 8 9 9 7 7 6 3
9 9 7 3 2 2 4 10 12 10 9 10 11 10 9 8 6 5 6 7 10 13 15 16 16 16 15 12 10 8 8 8 9 8 10 12 12 12 10 11 9 9 9 10 10 9 5 5 6
6 8 8 6 4 2 3 8 8 6 5 6 8 8 8 7 8 5 4 5 7 9 11 11 14 14 15 14 9 6 6 5 6 8 8 10 11 11 11 12 10 10 9 9 11 11 10 8 8
8 4 8 8 6 2 2 6 5 4 6 6 5 5 4 4 4 3 2 2 3 5 6 9 10 11 12 13 11 12 10 10 10 8 7 8 10 11 11 11 11 11 10 10 11 11 10 9 8
6 6 6 4 4 2 4 6 7 2 7 6 4 2 0 1 1 2 2 2 2 0 2 5 7 8 9 11 11 11 10 9 6 4 4 5 6 8 9 10 10 10 9 11 10 10 11 10 10
12 9 7 4 2 6 7 8 8 6 6 3 3 2 3 3 4 4 5 5 5 5 4 4 5 4 5 7 8 9 9 8 6 4 4 4 3 4 7 8 8 9 8 10 10 10 12 11 12
8 10 5 4 5 7 3 7 11 5 3 3 2 1 3 4 4 5 6 7 7 8 7 7 7 6 4 4 4 4 5 5 5 4 4 3 3 3 5 5 7 7 7 8 8 9 10 11 12
10 13 9 9 8 4 3 10 8 2 2 2 2 2 4 5 5 6 7 7 8 8 8 9 9 8 7 6 5 4 2 1 0 0 1 2 2 3 4 5 6 7 7 7 7 7 9 8 11
11 8 3 5 3 2 7 8 10 4 4 5 5 6 7 6 7 7 7 8 8 9 9 9 10 10 9 8 7 6 5 4 3 3 2 1 2 3 4 4 5 6 6 7 7 7 8 8 9
3 11 6 6 7 6 6 7 7 7 9 8 9 9 9 8 7 8 8 8 8 9 9 10 10 10 9 9 8 6 6 5 4 3 3 3 3 3 4 4 5 6 6 6 7 7 8 9 9
8 7 7 7 5 7 6 7 5 8 9 12 11 10 10 9 8 7 7 8 8 8 9 9 9 9 9 8 8 8 7 6 5 5 5 4 4 4 4 5 5 6 6 6 7 8 8 10 10
5 10 11 9 8 6 5 6 2 4 6 9 11 10 9 9 8 8 8 8 8 8 8 9 8 9 8 7 7 7 7 6 6 6 5 5 4 4 4 5 5 5 6 6 7 8 9 10 11
Wind_Direction
318 321 273 269 238 214 152 139 151 145 150 134 151 185 208 202 315 66 109 146 139 141 141 139 130 130 125 119 114 113 115 112 109 104 102 99 97 95 92 91 89 88 87 85 83 83 81 80 78
332 295 263 298 255 214 162 162 170 150 119 125 141 173 182 127 55 104 140 149 145 141 142 139 131 133 129 125 120 116 116 114 112 108 106 103 100 98 94 93 92 91 89 89 87 86 84 83 81
48 345 339 237 241 241 150 170 166 122 129 154 145 132 50 83 120 139 145 152 147 143 142 134 137 136 133 128 122 117 117 116 115 111 109 105 102 99 96 94 93 93 91 91 90 89 88 87 85
230 156 181 239 232 260 285 156 157 145 151 152 167 140 109 48 131 140 147 155 148 145 143 139 142 138 135 132 126 122 120 119 118 115 111 109 105 101 99 97 96 95 94 93 92 91 90 89 89
218 203 211 225 238 167 194 162 167 164 163 160 185 148 122 97 123 145 155 158 152 148 146 144 142 138 137 136 132 127 124 121 119 117 114 112 109 105 103 101 99 98 96 95 93 92 92 91 90
165 199 214 218 206 161 167 164 169 172 160 161 183 156 122 120 149 154 158 162 156 150 148 146 137 136 138 137 133 130 127 124 121 120 119 117 114 111 108 105 103 102 100 97 96 95 95 94 92
191 193 210 208 189 174 153 163 178 172 177 172 181 162 136 153 157 157 161 162 159 155 154 153 153 148 139 133 131 128 125 123 122 121 118 113 110 109 103 102 106 105 103 101 100 99 99 98 95
192 181 182 193 189 164 145 159 173 183 162 120 190 190 152 156 154 157 160 164 164 164 164 161 160 158 155 150 134 127 124 121 117 114 112 109 108 104 98 108 104 107 106 105 103 101 99 98 97
186 193 198 194 189 160 157 165 144 130 138 156 200 4 75 137 151 157 162 170 172 176 174 171 168 166 162 157 147 143 130 124 126 123 121 134 138 132 128 106 100 106 107 107 106 103 100 102 100
187 202 203 185 185 158 167 174 155 171 181 188 186 158 137 152 164 172 177 181 183 184 184 181 179 174 170 162 162 162 158 156 160 152 153 152 141 132 127 105 95 99 106 110 107 108 119 137 126
181 195 169 167 175 159 162 165 165 188 205 211 200 175 160 171 178 185 188 189 190 188 187 191 188 183 180 173 172 168 167 167 168 167 165 158 151 147 152 144 135 135 138 133 128 142 146 137 130
157 138 142 146 149 162 163 158 179 213 213 64 220 169 169 181 189 193 193 193 192 192 192 193 192 191 190 187 183 179 177 176 177 176 177 172 169 171 169 171 165 166 167 158 163 160 156 156 159
149 138 117 109 129 143 146 169 192 221 217 184 150 176 186 191 197 200 199 196 196 199 197 196 195 195 194 194 193 191 190 188 184 182 187 190 184 182 180 179 182 186 181 184 184 183 178 181 184
133 123 120 117 122 141 161 168 225 222 190 198 197 198 201 201 201 199 201 202 202 203 201 197 198 199 197 199 200 199 197 193 193 194 196 198 198 191 189 188 192 195 195 196 199 199 199 203 205
125 123 117 108 131 131 166 221 225 184 178 210 214 213 213 213 208 209 208 208 206 206 204 201 201 201 202 204 206 206 203 200 201 200 201 202 206 203 199 198 200 199 193 193 200 202 212 216 216
125 152 178 156 156 132 204 241 216 135 226 234 226 221 221 220 220 220 218 216 214 209 208 205 201 204 206 206 207 208 208 206 208 205 203 205 208 208 205 207 209 198 188 193 200 203 210 218 222
169 191 198 176 179 170 214 248 199 140 238 247 237 232 232 231 230 226 223 220 217 214 211 208 205 207 208 208 209 211 210 211 211 208 207 207 207 207 208 213 210 193 194 200 203 210 216 224 226
178 179 183 194 170 185 217 243 243 231 255 261 254 244 239 240 239 232 226 224 222 219 217 214 210 210 208 208 210 212 213 214 212 210 210 208 207 207 208 213 209 195 200 205 208 213 216 229 229
170 173 180 171 132 200 229 252 260 257 254 257 255 249 246 249 254 243 232 223 220 219 217 216 214 211 206 205 207 210 215 213 213 214 212 210 210 208 208 211 208 202 209 213 210 210 216 223 204
150 168 167 125 99 211 254 265 264 255 248 249 254 254 256 257 250 243 238 221 216 217 216 217 216 212 209 210 211 214 218 217 216 213 215 214 213 210 209 213 212 209 215 218 212 205 209 212 192
159 175 169 151 128 96 298 267 246 240 239 251 250 257 263 265 270 266 249 233 220 220 218 216 217 215 213 213 213 207 211 214 211 217 218 216 214 214 213 215 216 214 214 220 217 210 212 221 211
188 179 146 142 165 181 258 269 257 242 265 245 236 235 256 271 270 277 273 244 225 228 222 220 217 216 214 211 212 212 215 221 225 224 221 215 212 216 218 220 220 220 218 223 221 215 218 224 223
132 115 114 125 143 200 205 251 265 260 255 232 194 187 352 18 44 59 47 40 39 63 190 198 201 207 210 210 213 217 224 231 235 229 224 222 217 220 224 225 226 226 225 228 226 219 219 221 228
127 103 80 82 157 241 210 222 259 223 222 184 152 118 77 76 82 76 69 69 67 73 92 120 142 158 183 197 207 215 222 226 226 224 227 231 233 234 235 236 236 235 233 231 229 226 223 225 230
163 145 145 174 207 230 152 226 249 242 225 215 199 127 82 90 94 87 80 75 71 72 79 92 101 100 112 141 171 197 214 222 230 233 236 243 246 249 254 251 252 250 247 244 238 233 231 228 230
185 182 176 185 203 197 178 234 251 271 270 241 213 156 115 107 99 88 81 79 76 73 76 84 87 85 84 88 89 86 96 133 156 225 262 262 271 278 289 280 275 273 270 265 256 248 243 238 236
163 192 140 118 100 197 222 252 281 249 219 188 169 150 134 120 106 95 87 81 78 74 71 77 83 81 77 79 80 75 70 71 69 56 35 2 338 324 310 298 289 285 283 279 275 264 260 253 248
188 146 144 165 165 216 236 235 231 202 192 172 163 154 139 127 113 101 90 83 77 76 77 75 76 79 77 76 74 71 67 63 60 55 41 17 356 343 329 318 306 298 292 287 279 274 271 267 263
145 169 175 171 190 194 227 239 216 204 181 174 167 156 146 136 124 110 98 89 85 82 79 77 75 76 73 72 74 74 67 62 59 51 35 16 2 352 340 326 315 308 303 298 288 281 282 277 274
204 184 168 180 201 209 224 253 83 212 187 170 159 150 141 133 123 114 107 99 90 82 78 75 72 69 68 70 71 69 64 58 52 43 28 14 3 355 341 328 318 311 306 301 294 289 286 281 279